Hourly Weather Roundup
Issued by NWS

Home | Current Version | Previous Version | Text Only | Print | Product List | Glossary On
Versions: 1 2 3 4 5 6 7 8 9 10 11 12 13 14 15 16 17 18 19 20 21 22 23 24 25 26 27 28 29 30 31 32 33 34 35 36 37 38 39 40 41 42 43 44 45 46 47 48 49 50
000
NZUS43 KILX 230210
HWRCRS

NWR Hourly Weather Roundup
National Weather Service Lincoln IL
900 PM CDT WED MAR 22 2017


CITY           SKY/WX    TMP DP  RH WIND       PRES   REMARKS
Champaign      CLOUDY    35  21  56 E10       30.45S WCI  27
Lawrenceville  CLEAR     38  18  44 NE9       30.44R WCI  31
Peoria         CLOUDY    37  20  50 E14       30.43F WCI  28
Springfield    CLOUDY    41  17  38 E13       30.40F WCI  34
$$


CITY           SKY/WX    TMP DP  RH WIND       PRES   REMARKS
Bloomington    CLOUDY    32  23  69 E10       30.44S WCI  24
Decatur        PTCLDY    36  19  50 E14       30.43S WCI  27
Effingham      PTCLDY   N/A N/A N/A NE8       30.44R
Flora          PTCLDY    42  24  50 E6        30.42R
Galesburg      CLOUDY    37  22  54 E8        30.40R WCI  31
Jacksonville   CLOUDY    39  15  37 E10       30.38F WCI  32
Lacon          CLOUDY    35  23  62 E5        30.45R WCI  31
La Salle       MOCLDY    34  19  55 E13       30.47S WCI  25
Lincoln        CLOUDY    38  24  57 E8        30.43S WCI  32
Litchfield     CLOUDY    42  16  35 E10       30.38F

CITY           SKY/WX    TMP DP  RH WIND       PRES   REMARKS
Macomb         CLOUDY    39  17  40 E13       30.42S WCI  32
Mattoon        PTCLDY    37  21  52 E10       30.42S WCI  30
Moline         CLOUDY    39  22  50 SE10      30.41F WCI  32
Olney          PTCLDY    39  19  45 NE8       30.43R WCI  34
Paris          CLEAR     34  24  66 E7        30.46S WCI  28
Pontiac        PTCLDY    34  24  67 E10       30.46F WCI  26
Quincy         CLOUDY    43  11  27 E13       30.36R
Rantoul        CLEAR     33  27  77 E7        30.46R WCI  27
Robinson       CLEAR     37  19  47 E8        30.46R WCI  31
Taylorville    CLOUDY    39  17  41 E12G17    30.41S WCI  32
Terre Haute    CLOUDY    33  20  58 E7        30.46R WCI  27
$$


CITY           SKY/WX    TMP DP  RH WIND       PRES   REMARKS
Burlington     CLOUDY    41  17  38 SE14      30.38S WCI  33
Chicago        MOCLDY    30  18  60 NE6       30.49S WCI  24
Des Moines     CLOUDY    44  21  40 SE13      30.29S
Evansville     CLEAR     42  20  41 NE9       30.41R
Indianapolis   PTCLDY    35  20  54 E12       30.46R WCI  27
Kansas City    CLOUDY    52  27  38 SE21      30.20F
Milwaukee      CLOUDY    27  17  66 E5        30.50S WCI  22
St Louis       CLOUDY    47  17  30 E13       30.37S
$$





USA.gov is the U.S. government's official web portal to all federal, state and local government web resources and services.